Find Milstar 5

NORAD ID: 27168 Int'l Des: 2002-001 Owner: AFSMC Country: US operational
HEOCIRCULARGSO

Live Position

Loading 3D Globe...

About Milstar 5

Description loading...

Upcoming Passes

Passes for default location (London). Set your location on the main map for personalized predictions.

Altitude History

Loading altitude history...

Two-Line Element Set

1 27168U 02001A 26104.94694228 .00000106 00000-0 00000+0 0 9990
2 27168 11.1047 22.2835 0099718 6.7002 173.9691 1.00274907 32327
Epoch: Apr 14, 2026 • Age: 26 hours

Current Status

Altitude 36174.3 km
Velocity 3.05 km/s
Sub-Earth Point -5.49°S, 18.03°E
Launch Date Jan 16, 2002
Age 24.2 years
Type other

Technical Details

Classification Payload
Mass 4500.00 kg
Dry Mass 4200.00 kg
Total Mass 4500.00 kg
Length 15.50 m
Diameter 5.00 m
Span 35.00 m
Shape Truss + Ant
Manufacturer LMMS
Bus Type Milstar
Phase Status In Orbit
Owner/State AFSMC/US

Most Searched